Weather in Kadzhi-Say

Kyrgyzstan     42°08′28″N   77°10′38″E
temp.,
°C
wind,
m/s
gust,
m/s
humid.,
%
clouds,
%
prec.,
mm/h
press.,
hPa
HPBL,
m
12 august, fri
fri1200:00+19w91063100 0.1 1011666
03:00+16wsw4579100 1.0 1013391
06:00+17sw337685 1.4 1012250
09:00+18nw33688 1.6 1013450
12:00+18nw22654 1.9 1012412
15:00+18nne21640 0.1 1011349
18:00+19n01580 0.2 1011301
21:00+20wsw12570 0.0 1012179
13 august, sat
sat1300:00+20w12560 0.0 1012254
03:00+19ne01560 0.0 1011306
06:00+19n11580 0.0 1012394
09:00+19nw32600 0.0 1013512
12:00+19nnw32600 0.0 1012358
15:00+19n11580 0.1 1011255
18:00+20e22530 0.1 1011250
21:00+20ese22574 0.0 101282
14 august, sun
sun1400:00+20ene22590 0.0 1011110
03:00+19ene33630 0.0 1011288
06:00+19nne11560 0.0 1011187
09:00+20nnw22540 0.0 1011293
12:00+20n11520 0.0 1010205
15:00+20ne11452 0.0 1008159
18:00+23sse565572 0.4 1006116
21:00+21e34655 0.0 1009119
15 august, mon
mon1500:00+21ne11601 0.0 100813
03:00+21e11622 0.0 100711
06:00+20ese00610 0.0 100713
09:00+21nne21574 0.0 1008107
12:00+21n115575 0.0 1007169
15:00+21nne11525 0.0 1005163
18:00+22nne11527 0.2 1005107
21:00+21e336317 0.3 100655
16 august, tue
tue1600:00+21nne116648 0.3 100712
03:00+21sw11685 0.0 100614
06:00+20wsw226412 0.0 100689
09:00+20ene42650 0.0 1007248
12:00+20ne21639 0.1 1007261
15:00+23ssw455011 0.3 1004162
18:00+21sw5657100 0.3 1006306
21:00+20ene3365100 0.2 1008220